Zurück zum Katalog

STARLINK-11711

AktivKommunikationVLEO
NORAD 64378·PAYLOAD·🇺🇸 United States

Gestartet Jun 13, 2025 von Cape Canaveral Space Force Station

Loading…

Nächste Überflüge (nächste 24 Stunden)

TLE

AktuellSource: CelesTrak SupGP

Epoche: Sep 14, 2026, 20:46 UTC

1 64378C 25127J   26257.86576389  .00092590  00000+0  71886-3 0  2573
2 64378  43.0008  24.0038 0001818 281.6150 219.5172 15.70801505    13

Verfolge STARLINK-11711 in Echtzeit mit AllMySat

Download on the App Store